Location: Unspecified
(51.6250°N, 0.8230°E)
Time: 06:44:06
(UTC+01:00)

Okean 3 - Pass Details

Date: 12 August 2020
Orbit: 577 x 600 km, 82.5° (Epoch: 21 September)

Event Time Altitude Azimuth Distance (km) Brightness Sun altitude
Rises 00:06:49 0° 339° (NNW) 2,853 8.4 -22.4°
Reaches altitude 10° 00:09:21 10° 326° (NW) 1,948 7.1 -22.5°
Maximum altitude 00:12:48 24° 272° (W) 1,266 5.3 -22.6°
Enters shadow 00:13:53 21° 250° (WSW) 1,349 5.2 -22.7°
